KD4VH-2 Surfside SC US current weather conditions

sailwx.info

Wind from 032 at 3 knots gusting 9

Air temperature 2.2° C
Dewpoint -0.4° C

Last reported at 2020-Jan-23 11:01 UTC.
Time now 2020-Jan-23 12:16 UTC

Location: N 33°37' W 078°58'.
View on Google Maps.

See reports from other nearby stations

  
Tides and Currents Weather Stations Pressure Air Temp Water Temp Dewpoint Dewpoint Depression Visibility Wind Speed Wind Dir Waves Ship Positions
date/time (UTC)wind fromknots sea level pressurealtimeterstation pressurevisibilityair tempwater tempwave heightnotes
2020-Jan-23 11:01 032 3 gusting 9 2.2
2020-Jan-23 10:45 337 4 gusting 9 2.2
2020-Jan-23 10:30 332 3 gusting 8 2.2
2020-Jan-23 10:15 350 0 gusting 6 2.2
2020-Jan-23 10:00 005 1 gusting 6 2.2
2020-Jan-23 09:45 018 1 gusting 6 2.2
2020-Jan-23 09:30 028 2.2
2020-Jan-23 09:15 023 0 gusting 4 2.2
2020-Jan-23 09:00 342 0 gusting 6 2.8
2020-Jan-23 08:46 360 2 gusting 6 2.8
2020-Jan-23 08:30 005 1 gusting 7 2.8
2020-Jan-23 08:15 036 3 gusting 6 2.8
2020-Jan-23 08:00 010 3 gusting 7 2.8
2020-Jan-23 07:47 015 2 gusting 9 2.8
2020-Jan-23 07:32 032 1 gusting 7 2.8
2020-Jan-23 07:17 033 1 gusting 8 2.8
2020-Jan-23 07:01 010 1 gusting 6 3.3
2020-Jan-23 06:48 018 2 gusting 7 3.3
2020-Jan-23 06:31 053 2 gusting 8 3.3
2020-Jan-23 06:16 059 2 gusting 9 3.3
2020-Jan-23 06:02 057 3 gusting 8 3.9
2020-Jan-23 05:46 016 3 gusting 9 3.9
2020-Jan-23 05:32 040 4 gusting 7 3.9
2020-Jan-23 05:16 350 2 gusting 10 3.9
2020-Jan-23 05:01 015 3 gusting 7 4.4
2020-Jan-23 04:46 035 1 gusting 6 4.4
2020-Jan-23 04:32 053 2 gusting 7 4.4
2020-Jan-23 04:16 034 4 gusting 8 4.4
2020-Jan-23 04:01 024 1 gusting 6 5.0
2020-Jan-23 03:47 047 3 gusting 9 5.0
2020-Jan-23 03:32 036 3 gusting 6 5.0
2020-Jan-23 03:16 037 2 gusting 7 5.6
2020-Jan-23 03:02 040 2 gusting 6 5.6
2020-Jan-23 02:46 005 3 gusting 8 5.6
2020-Jan-23 02:30 021 1 gusting 6 6.1
2020-Jan-23 02:16 030 1 gusting 5 6.1
2020-Jan-23 02:02 009 1 gusting 6 6.1
2020-Jan-23 01:45 355 3 gusting 11 6.7
2020-Jan-23 01:30 058 2 gusting 8 6.7
2020-Jan-23 01:16 049 3 gusting 7 6.7
2020-Jan-23 01:01 030 2 gusting 7 7.2
2020-Jan-23 00:46 050 3 gusting 8 7.2
2020-Jan-23 00:31 346 2 gusting 7 7.2
2020-Jan-23 00:15 005 2 gusting 7 7.8
2020-Jan-23 00:01 011 1 gusting 8 7.8
2020-Jan-22 23:31 030 2 gusting 8 8.3
2020-Jan-22 23:16 015 2 gusting 7 8.9
2020-Jan-22 23:01 013 2 gusting 9 8.9
2020-Jan-22 22:45 051 2 gusting 7 9.4
2020-Jan-22 22:30 336 3 gusting 10 10.0
2020-Jan-22 22:15 026 3 gusting 9 10.0
2020-Jan-22 22:01 029 4 gusting 11 10.6
2020-Jan-22 21:46 018 3 gusting 10 10.6
2020-Jan-22 21:31 360 4 gusting 12 11.1
2020-Jan-22 21:15 023 4 gusting 12 11.7
2020-Jan-22 21:00 047 3 gusting 12 11.7
2020-Jan-22 20:45 032 5 gusting 10 12.2
2020-Jan-22 20:30 339 3 gusting 12 12.2
2020-Jan-22 20:16 005 0 gusting 10 12.2
2020-Jan-22 20:01 332 6 gusting 11 12.2
2020-Jan-22 19:45 022 5 gusting 12 11.7
2020-Jan-22 19:30 023 4 gusting 11 11.7
2020-Jan-22 19:15 019 5 gusting 11 11.7
2020-Jan-22 19:00 026 5 gusting 12 11.1
2020-Jan-22 18:45 028 1 gusting 13 11.1
2020-Jan-22 18:30 029 2 gusting 10 11.1
2020-Jan-22 18:15 032 3 gusting 11 10.6
2020-Jan-22 18:02 342 5 gusting 12 10.0
2020-Jan-22 17:47 032 3 gusting 13 10.0
2020-Jan-22 17:32 054 6 gusting 14 9.4
2020-Jan-22 17:17 345 6 gusting 15 8.9
2020-Jan-22 17:02 011 8 gusting 19 7.8
2020-Jan-22 16:46 013 6 gusting 15 7.8
2020-Jan-22 16:31 005 5 gusting 14 6.7
2020-Jan-22 16:16 053 6 gusting 13 6.7
2020-Jan-22 16:01 044 6 gusting 17 5.6
2020-Jan-22 15:47 338 3 gusting 18 4.4
2020-Jan-22 15:31 036 9 gusting 16 4.4
2020-Jan-22 15:16 073 6 gusting 17 3.9
2020-Jan-22 15:00 013 4 gusting 13 3.3
2020-Jan-22 14:45 032 6 gusting 15 2.8
2020-Jan-22 14:30 022 5 gusting 12 2.2
2020-Jan-22 14:16 051 6 gusting 14 1.7
2020-Jan-22 14:00 339 6 gusting 19 1.1
2020-Jan-22 13:45 355 4 gusting 12 0.6
2020-Jan-22 13:31 005 6 gusting 12 -0.0
2020-Jan-22 13:15 026 6 gusting 13 -0.6
2020-Jan-22 13:00 057 4 gusting 13 -0.6
2020-Jan-22 12:45 032 5 gusting 14 -0.6
2020-Jan-22 12:30 307 6 gusting 16 -0.6
2020-Jan-22 12:17 042 6 gusting 13 -0.6
2020-Jan-22 12:02 024 4 gusting 14 -0.6
2020-Jan-22 11:46 017 6 gusting 12 -0.6
2020-Jan-22 11:33 323 6 gusting 13 -0.6
2020-Jan-22 11:16 310 6 gusting 13 -0.6
2020-Jan-22 11:01 037 6 gusting 17 -0.6
2020-Jan-22 10:47 023 5 gusting 16 -0.6
2020-Jan-22 10:32 033 5 gusting 21 -0.6
2020-Jan-22 10:16 058 4 gusting 13 -0.6
2020-Jan-22 10:02 026 7 gusting 14 -0.6
2020-Jan-22 09:46 053 9 gusting 15 -0.6
2020-Jan-22 09:32 330 4 gusting 13 -0.6
2020-Jan-22 09:16 009 7 gusting 18 -0.6
2020-Jan-22 09:01 301 6 gusting 19 -0.6
2020-Jan-22 08:45 031 7 gusting 15 -0.6
2020-Jan-22 08:31 069 5 gusting 13 -0.0
2020-Jan-22 08:16 038 6 gusting 14 -0.0
2020-Jan-22 08:00 345 6 gusting 18 -0.0
2020-Jan-22 07:45 012 6 gusting 16 -0.0
2020-Jan-22 07:31 349 7 gusting 17 -0.0
2020-Jan-22 07:15 355 6 gusting 15 -0.0
2020-Jan-22 07:00 022 6 gusting 19 -0.0
2020-Jan-22 06:45 039 2 gusting 17 -0.0
2020-Jan-22 06:31 015 6 gusting 19 0.6
2020-Jan-22 06:16 027 5 gusting 15 0.6
2020-Jan-22 06:00 035 6 gusting 18 0.6
2020-Jan-22 05:45 034 5 gusting 16 0.6
2020-Jan-22 05:30 057 6 gusting 13 0.6
2020-Jan-22 05:15 035 5 gusting 12 0.6
2020-Jan-22 05:00 005 2 gusting 10 0.6
2020-Jan-22 04:45 040 5 gusting 13 1.1
2020-Jan-22 04:32 019 5 gusting 20 1.1
2020-Jan-22 04:16 021 3 gusting 18 1.1
2020-Jan-22 04:02 017 5 gusting 13 1.1
2020-Jan-22 03:48 360 6 gusting 19 1.1
2020-Jan-22 03:32 023 6 gusting 15 1.1
2020-Jan-22 03:17 044 5 gusting 12 1.7
2020-Jan-22 03:02 058 7 gusting 13 1.7
2020-Jan-22 02:47 022 6 gusting 20 1.7
2020-Jan-22 02:32 015 6 gusting 17 1.7
2020-Jan-22 02:16 022 6 gusting 14 1.7
2020-Jan-22 02:03 055 9 gusting 15 1.7
2020-Jan-22 01:46 005 6 gusting 18 1.7
2020-Jan-22 01:32 055 5 gusting 13 2.2
2020-Jan-22 01:17 325 5 gusting 11 2.2
2020-Jan-22 01:02 009 2 gusting 9 2.2
2020-Jan-22 00:46 035 6 gusting 13 2.2
2020-Jan-22 00:31 022 2 gusting 12 2.2
2020-Jan-22 00:17 030 6 gusting 15 2.8
2020-Jan-22 00:02 016 8 gusting 14 2.8
2020-Jan-21 23:48 035 6 gusting 13 2.8
2020-Jan-21 23:32 032 7 gusting 16 2.8
2020-Jan-21 23:17 360 6 gusting 14 2.8
2020-Jan-21 23:02 033 3 gusting 17 3.3
2020-Jan-21 22:46 360 6 gusting 15 3.3
2020-Jan-21 22:32 034 4 gusting 14 3.3
2020-Jan-21 22:17 019 5 gusting 17 3.3
2020-Jan-21 22:02 021 5 gusting 19 3.9
2020-Jan-21 21:46 360 6 gusting 19 3.9
2020-Jan-21 21:32 051 8 gusting 20 3.9
2020-Jan-21 21:16 005 7 gusting 15 4.4
2020-Jan-21 21:01 360 6 gusting 15 5.0
2020-Jan-21 20:48 005 6 gusting 18 4.4
2020-Jan-21 20:31 021 7 gusting 19 4.4
2020-Jan-21 20:16 309 7 gusting 19 5.0
2020-Jan-21 20:01 338 6 gusting 22 5.0
2020-Jan-21 19:46 024 4 gusting 16 5.0
2020-Jan-21 19:32 013 8 gusting 19 5.0
2020-Jan-21 19:16 037 8 gusting 19 4.4
2020-Jan-21 19:03 013 9 gusting 19 4.4
2020-Jan-21 18:46 005 7 gusting 21 3.9
2020-Jan-21 18:31 034 8 gusting 19 4.4
2020-Jan-21 18:15 326 9 gusting 15 3.9
2020-Jan-21 18:01 048 5 gusting 15 3.9
2020-Jan-21 17:46 017 7 gusting 20 3.9
2020-Jan-21 17:31 360 8 gusting 18 3.3
2020-Jan-21 17:15 360 9 gusting 17 3.3
2020-Jan-21 17:00 334 8 gusting 20 2.8
2020-Jan-21 16:45 031 4 gusting 15 2.8
2020-Jan-21 16:30 344 6 gusting 16 2.2
2020-Jan-21 16:15 355 2 gusting 19 2.2
2020-Jan-21 16:00 038 9 gusting 18 1.7
2020-Jan-21 15:45 030 8 gusting 18 1.7
2020-Jan-21 15:30 360 6 gusting 14 1.1
2020-Jan-21 15:17 012 8 gusting 14 0.6
2020-Jan-21 15:02 013 7 gusting 18 0.6
2020-Jan-21 14:48 030 4 gusting 17 -0.0
2020-Jan-21 14:33 053 6 gusting 18 -0.6
2020-Jan-21 14:16 069 6 gusting 18 -1.1
2020-Jan-21 14:01 323 7 gusting 13 -1.1
2020-Jan-21 13:47 027 3 gusting 11 -1.7
2020-Jan-21 13:32 316 3 gusting 13 -2.2
2020-Jan-21 13:16 055 6 gusting 13 -2.2
2020-Jan-21 13:01 360 4 gusting 9 -2.2
2020-Jan-21 12:47 046 1 gusting 12 -2.2
2020-Jan-21 12:31 005 4 gusting 9 -2.2
2020-Jan-21 12:16 030 4 gusting 10 -2.2
2020-Jan-21 12:01 063 4 gusting 10 -2.2